Hampton, VA

12:43 AM EST on February 27, 2017 (GMT -0500)
Langley Air Force Base

Weather History for KLFI - November, 2012

Change the Weather History Date:

Monday, November 26, 2012

  Actual Average Record
Temperature  
Mean Temperature 45 °F -  
Max Temperature 54 °F 58 °F 78 °F (1990)
Min Temperature 36 °F 39 °F 21 °F (1950)
Degree Days  
Heating Degree Days 20    
Moisture  
Dew Point 22 °F    
Average Humidity 45    
Maximum Humidity 85    
Minimum Humidity 11    
Precipitation  
Precipitation 0.00 in - - ()
Sea Level Pressure  
Sea Level Pressure 30.17 in    
Wind  
Wind Speed 7 mph (SE)    
Max Wind Speed 12 mph    
Max Gust Speed 22 mph    
Visibility 10 miles    
Events      
Averages and records for this station are not official NWS values.
T = Trace of Precipitation, MM = Missing Value Source: NWS Daily Summary

Daily Weather History Graph

Daily Weather History Graph

Search for Another Location

Airport or City:

Trip Planner

Search our weather history database for the weather conditions in past years. The results will help you decide how hot, cold, wet, or windy it might be!

Date:

Astronomy

Nov. 26, 2012 Rise Set
Actual Time 6:55 AM EST 4:49 PM EST
Civil Twilight 6:27 AM EST 5:18 PM EST
Nautical Twilight 5:55 AM EST 5:50 PM EST
Astronomical Twilight 5:24 AM EST 6:21 PM EST
Moon 3:39 PM EST (11/26) 5:05 AM EST (11/26)
Length of Visible Light 10h 50m
Length of Day
9h 53m
Waxing Gibbous, 97% of the Moon is Illuminated
Nov 26
Waxing Gibbous
Nov 28
Full
Dec 6
Last Quarter
Dec 13
New
Dec 20
First Quarter

Hourly Weather History & Observations

Time (EST) Temp. Windchill Dew Point Humidity Pressure Visibility Wind Dir Wind Speed Gust Speed Precip Events Conditions
12:55 AM 43.3 °F 37.2 °F 11.3 °F 27% 30.06 in 10.0 mi WSW 11.5 mph 21.9 mph N/A   Clear
1:55 AM 43.7 °F 37.7 °F 10.9 °F 26% 30.06 in 10.0 mi WSW 11.5 mph - N/A   Clear
2:55 AM 42.4 °F 36.1 °F 12.9 °F 30% 30.07 in 10.0 mi WSW 11.5 mph - N/A   Clear
3:55 AM 40.3 °F 34.9 °F 15.3 °F 36% 30.08 in 10.0 mi West 8.1 mph - N/A   Clear
4:55 AM 40.5 °F 35.8 °F 16.3 °F 38% 30.10 in 10.0 mi WSW 6.9 mph - N/A   Overcast
5:55 AM 39.4 °F 36.1 °F 16.9 °F 40% 30.12 in 10.0 mi WSW 4.6 mph - N/A   Overcast
6:55 AM 38.7 °F - 18.3 °F 44% 30.14 in 10.0 mi Calm Calm - N/A   Scattered Clouds
7:55 AM 36.7 °F - 26.2 °F 66% 30.16 in 10.0 mi Calm Calm - N/A   Clear
8:55 AM 44.1 °F 42.5 °F 18.3 °F 36% 30.18 in 10.0 mi SW 3.5 mph - N/A   Clear
9:55 AM 47.5 °F - 13.1 °F 25% 30.20 in 10.0 mi Calm Calm - N/A   Clear
10:55 AM 50.7 °F - 9.7 °F 19% 30.21 in 10.0 mi ENE 5.8 mph - N/A   Clear
11:55 AM 54.1 °F - 0.7 °F 11% 30.19 in 10.0 mi NNE 4.6 mph - N/A   Clear
12:55 PM 53.8 °F - 4.1 °F 13% 30.18 in 10.0 mi NNE 3.5 mph - N/A   Clear
1:55 PM 54.3 °F - 7.3 °F 15% 30.18 in 10.0 mi East 8.1 mph - N/A   Clear
2:55 PM 52.2 °F - 17.4 °F 25% 30.19 in 10.0 mi East 9.2 mph - N/A   Clear
3:55 PM 50.0 °F - 27.3 °F 41% 30.19 in 10.0 mi East 6.9 mph - N/A   Clear
4:55 PM 46.4 °F 43.5 °F 31.8 °F 57% 30.20 in 10.0 mi East 5.8 mph - N/A   Clear
5:55 PM 43.5 °F 41.9 °F 36.0 °F 75% 30.21 in 10.0 mi East 3.5 mph - N/A   Clear
6:55 PM 46.2 °F 44.1 °F 36.7 °F 69% 30.22 in 10.0 mi SE 4.6 mph - N/A   Clear
7:55 PM 45.5 °F 44.2 °F 38.8 °F 78% 30.24 in 10.0 mi SE 3.5 mph - N/A   Clear
8:55 PM 45.0 °F 42.6 °F 38.1 °F 77% 30.23 in 10.0 mi SE 4.6 mph - N/A   Clear
9:55 PM 42.6 °F 40.9 °F 36.5 °F 79% 30.23 in 10.0 mi SSE 3.5 mph - N/A   Clear
10:55 PM 42.4 °F 40.7 °F 38.1 °F 85% 30.23 in 10.0 mi South 3.5 mph - N/A   Clear
11:55 PM 42.1 °F - 35.6 °F 78% 30.22 in 10.0 mi Calm Calm - N/A   Clear